Voltar ao catálogo

KUIPER-00008

AtivoComunicaçõesLEO
NORAD 63724·PAYLOAD·🇺🇸 United States

Lançado Apr 28, 2025 de Cape Canaveral Space Force Station

Loading…

Próximas Passagens (próximas 24 horas)

TLE

AtualizadoSource: CelesTrak SupGP

Época: Sep 15, 2026, 04:05 UTC

1 63724C 25088A   26258.17060185  .00001228  00000+0  16079-3 0  2582
2 63724  51.9005 330.1249 0000444  92.8308 338.6282 14.79926882    17

Acompanhe KUIPER-00008 em tempo real com AllMySat

Download on the App Store